Tracking 30995 objects as of 7-Jul-2025
HD Live streaming from Space Station
objects crossing your sky now

STARLINK-3892

Track STARLINK-3892 now!
10-day predictions
STARLINK-3892 is classified as:


NORAD ID: 52488
Int'l Code: 2022-049AP
Perigee: 545.9 km
Apogee: 547.8 km
Inclination: 53.2 °
Period: 95.4 minutes
Semi major axis: 6917 km
RCS: Unknown
Launch date: May 6, 2022
Source: United States (US)
Launch site: AIR FORCE EASTERN TEST RANGE (AFETR)
Your satellite tracking list
Your tracking list is empty




NASA's NSSDC Master Catalog

Two Line Element Set (TLE):
1 52488U 22049AP  25187.00170152 -.00000954  00000-0 -41851-4 0  9996
2 52488  53.2165  86.5435 0001372  88.9599 271.1550 15.08835440175016
Source of the keplerian elements: AFSPC